Regional Weather Roundup
Issued by NWS

Home | Current Version | Previous Version | Text Only | Print | Product List | Glossary Off
Versions: 1 2 3 4 5 6 7 8 9 10 11 12 13 14 15 16 17 18 19 20 21 22 23 24 25 26 27 28 29 30 31 32 33 34 35 36 37 38 39 40 41 42 43 44 45 46 47 48 49 50

000
ASUS43 KOAX 302110
RWRNE

WEATHER ROUNDUP FOR NEBRASKA
NATIONAL WEATHER SERVICE OMAHA NE
400 PM CDT THU JUL 30 2015

NOTES: SATELLITE DATA IS BEING USED TO AUGMENT CLOUD COVER ABOVE
       12000 FEET.
       "FAIR" INDICATES FEW OR NO CLOUDS BELOW 12,000 FEET WITH NO
       SIGNIFICANT WEATHER AND/OR OBSTRUCTIONS TO VISIBILITY.

  * THESE STATIONS DO NOT REPORT WEATHER SUCH AS RAIN...SNOW OR FOG.

NEZ001>004-019>022-054>056-302200-
NEBRASKA PANHANDLE

CITY           SKY/WX    TMP DP  RH WIND       PRES   REMARKS
SCOTTSBLUFF    SUNNY     89  45  21 VRB7      30.26F
ALLIANCE       SUNNY     89  52  28 E8        30.25F
CHADRON        SUNNY     89  45  21 CALM      30.23F
KIMBALL        SUNNY     86  48  26 N3        30.29F
SIDNEY         MOSUNNY   87  58  37 NE5       30.26F
$$

NEZ057>060-069>072-079>082-302200-
SOUTHWEST NEBRASKA

CITY           SKY/WX    TMP DP  RH WIND       PRES   REMARKS
NORTH PLATTE   SUNNY     89  57  33 S6        30.20F
IMPERIAL       SUNNY     91  56  30 S8        30.21F
LEXINGTON      SUNNY     89  61  39 SW6       30.20F
MCCOOK         SUNNY     90  59  35 VRB3      30.20F
OGALLALA       MOSUNNY   90  58  34 E5        30.21F
$$

NEZ005>010-023>029-035>040-094-302200-
NORTH CENTRAL NEBRASKA

CITY           SKY/WX    TMP DP  RH WIND       PRES   REMARKS
VALENTINE      SUNNY     92  41  17 NW7       30.19F
AINSWORTH      SUNNY     90  50  25 W5        30.19F
BROKEN BOW     SUNNY     89  61  38 SW12      30.21F
O`NEILL        PTSUNNY   87  57  35 NW5       30.17F
ORD            SUNNY     89  60  37 S12       30.17F
THEDFORD       PTSUNNY   89  56  33 SW9       30.20F
$$

NEZ041-046>049-061>064-073>077-083>087-302200-
SOUTH CENTRAL NEBRASKA

CITY           SKY/WX    TMP DP  RH WIND       PRES   REMARKS
GRAND ISLAND   SUNNY     89  62  40 W6        30.20F
AURORA         SUNNY     86  66  51 SW7       30.19F
HASTINGS       SUNNY     87  65  47 VRB6      30.19F
HEBRON         SUNNY     87  54  31 S9        30.17F
HOLDREGE       SUNNY     87  61  41 S7        30.20F
KEARNEY *      SUNNY     86  64  48 S9        30.20F
YORK           SUNNY     86  63  45 S6        30.19F
$$

NEZ011>018-030>034-042>045-302200-
NORTHEAST NEBRASKA

CITY           SKY/WX    TMP DP  RH WIND       PRES   REMARKS
NORFOLK        SUNNY     88  60  38 SW9       30.16F
ALBION         SUNNY     88  56  33 S8        30.17F
BLAIR          SUNNY     84  64  49 NW5       30.17F
COLUMBUS *     SUNNY     88  61  40 SW9       30.17F
FREMONT        SUNNY     87  63  44 W6        30.17F
TEKAMAH        SUNNY     87  65  47 W7        30.15F
WAYNE          SUNNY     88  63  42 W12       30.16F
$$

NEZ050>053-065>068-078-088>093-302200-
SOUTHEAST NEBRASKA

CITY           SKY/WX    TMP DP  RH WIND       PRES   REMARKS
LINCOLN        SUNNY     91  52  26 SW10      30.17F
OMAHA EPPLEY   MOSUNNY   90  57  32 W10       30.15F
BEATRICE       SUNNY     87  62  44 SW9       30.17F
FALLS CITY     SUNNY     87  63  44 SW5       30.16F
NEBRASKA CITY  SUNNY     85  55  34 SW5       30.17F
PLATTSMOUTH    SUNNY     87  53  31 W5        30.17F
$$

NEZ044-045-051>053-067-302200-
OMAHA AREA

CITY           SKY/WX    TMP DP  RH WIND       PRES   REMARKS
OMAHA EPPLEY   MOSUNNY   90  57  32 W10       30.15F
BLAIR          SUNNY     84  64  49 NW5       30.17F
FREMONT        SUNNY     87  63  44 W6        30.17F
MILLARD        SUNNY     89  60  37 W9        30.16F
OFFUTT AFB     SUNNY     88  59  38 VRB6      30.15F
PLATTSMOUTH    SUNNY     87  53  31 W5        30.17F
WAHOO          FAIR      87  61  40 SW10      30.17F
$$



USA.gov is the U.S. government's official web portal to all federal, state and local government web resources and services.